Location: Cahas Mountain Overlook
(37.0833°N, 80.1000°W)
Time: 07:45:11
(UTC-04:00)

Explorer 7 - Pass Details

Date: 16 February 2026
Orbit: 430 x 540 km, 50.2° (Epoch: 14 March)

Event Time Altitude Azimuth Distance (km) Brightness Sun altitude
Rises 20:17:04 0° 315° (NW) 2,550 10.9 -27.6°
Reaches altitude 10° 20:19:44 10° 335° (NNW) 1,693 9.6 -28.1°
Enters shadow 20:20:08 12° 339° (NNW) 1,588 9.4 -28.2°
Maximum altitude 20:22:30 19° 21° (NNE) 1,270 - -28.7°
Drops below altitude 10° 20:25:19 10° 67° (ENE) 1,740 - -29.3°
Sets 20:28:06 0° 86° (E) 2,648 - -29.8°
